Retour au catalogue

FENGYUN 1C DEB

ActifSSO
NORAD 30054·DEBRIS·🇨🇳 China

Lancé May 10, 1999 depuis Taiyuan Satellite Launch Center

Loading…

Prochains Passages (prochaines 24 heures)

TLE

FraisSource: Space-Track

Époque: Sep 14, 2026, 00:35 UTC

1 30054U 99025PF  26257.02448969  .00000293  00000-0  29169-3 0  9995
2 30054  99.3430 286.9501 0276119   9.1801  19.6629 13.70140244981184

Suivez FENGYUN 1C DEB en temps réel avec AllMySat

Download on the App Store